Location: Cogollal
(10.0582°N, 67.8466°W)
Time: 02:02:41
(UTC+00:00)

SL-24 R/B - RUBIN 2 - Pass Details

Date: 14 April 2024
Orbit: 568 x 1023 km, 64.6° (Epoch: 19 May)

Event Time Altitude Azimuth Distance (km) Brightness Sun altitude
Exits shadow 08:49:57 26° 188° (S) 1,426 5.2 -22.8°
Maximum altitude 08:52:49 68° 111° (ESE) 839 4.3 -22.1°
Drops below altitude 10° 08:58:32 10° 29° (NNE) 2,496 7.2 -20.7°
Sets 09:01:12 0° 27° (NNE) 3,505 8.0 -20.1°
